{"data":{"norad_id":54253,"epoch":"2026-09-21T21:29:27.947040Z","epoch_age_seconds":41676,"freshness":"FRESH","line1":"1 54253U 22155C   26264.89546235  .00030262  00000+0  39362-3 0  9994","line2":"2 54253  97.6336  51.8276 0004575  18.2701 341.8718 15.58723838214520","mean_motion":15.58723838,"eccentricity":0.0004575,"inclination_deg":97.6336,"raan_deg":51.8276,"arg_perigee_deg":18.2701,"mean_anomaly_deg":341.8718,"bstar":0.00039362,"rev_number":21452,"period_min":92.383266675877,"perigee_km":388.25240808358,"apogee_km":394.44648818362,"semimajor_km":6769.4864481336,"source":"CELESTRAK","updated_at":"2026-09-22T09:00:25.143821Z"}}